Regional Weather Roundup
Issued by NWS Upton, NY

Current Version | Previous Version | Graphics & Text | Print | Product List | Glossary Off
Versions: 1 2 3 4 5 6 7 8 9 10 11 12 13 14 15 16 17 18 19 20 21 22 23 24 25 26 27

000
ASUS41 KOKX 180308
RWROKX

Regional Weather Roundup
National Weather Service New York NY
1000 PM EST WED JAN 17 2018

Note: "FAIR" indicates few or no clouds below 12,000 feet with no
significant weather and/or obstructions to visibility.

NYZ071-072-176-178-NJZ106-104-180400-
New York City Metro Area

CITY           SKY/WX    TMP DP  RH WIND       PRES   REMARKS
Central Park   CLOUDY    23  10  57 NW12      30.20S WCI  12
Bronx Bot Gard   N/A     25  14  63 NW10      30.19S WCI  15
Bronx Lehman C   N/A     23  14  68 NW12        N/A  WCI  12
LaGuardia Arpt CLOUDY    25  14  63 NW17      30.19R WCI  12
Queens College   N/A     25  16  68 NW9         N/A  WCI  15
Kennedy Intl   CLOUDY    25  16  68 NW15      30.20R WCI  13
Breezy Point     N/A    N/A N/A N/A NW13G18     N/A
Brooklyn Coll    N/A     25  10  54 NW13        N/A  WCI  13
Staten Island    N/A     23  10  58 N13         N/A  WCI  11
Newark/Liberty MOCLDY    23   9  55 N16G24    30.20S WCI  10
Teterboro      CLOUDY    22  10  60 NW10      30.19R WCI  11
$$

NYZ177-179-078>081-180400-
Long Island New York

CITY           SKY/WX    TMP DP  RH WIND       PRES   REMARKS
Jones Beach      N/A    N/A N/A N/A NW15        N/A
Wantagh          N/A     28  21  74 NW12        N/A  WCI  18
Matinecock Pt    N/A    N/A N/A N/A NW16        N/A
Farmingdale    CLOUDY    27  22  81 NW10      30.15F WCI  17
MacArthur/ISP  CLOUDY    29  23  78 N12       30.13S WCI  19
Shirley        MOCLDY    28  21  75 N10       30.14R WCI  19
Mt Sinai Harb    N/A    N/A N/A N/A N10G17      N/A
Westhampton    FAIR      29  23  78 NW13      30.14R WCI  19
East Hampton   CLOUDY    31  29  92 NW7       30.10R WCI  24
Southold         N/A     32  27  80 NW10        N/A  WCI  24
Montauk          N/A     35  31  85 NW10      30.10S WCI  27
$$

NYZ052-065-067-180400-
Hudson Valley

CITY           SKY/WX    TMP DP  RH WIND       PRES   REMARKS
White Plains   MOCLDY    23  18  81 NW10      30.13S WCI  12
Larchmont Harb   N/A    N/A N/A N/A W10         N/A
Croton On Huds   N/A    N/A N/A N/A NW5         N/A
Somers           N/A     23  18  80 NW6         N/A  WCI  16
Brewster         N/A     21  14  73 N8          N/A  WCI  12
Newburgh       MOCLDY    16  12  86 NW7       30.17F WCI   6
Montgomery     FAIR      18   7  62 NW13      30.16S WCI   5
Otisville        N/A     14   7  73 SE2         N/A
Warwick          N/A     16   7  67 W7          N/A  WCI   6
Suffern          N/A     19  10  68 NW10        N/A  WCI   8
Poughkeepsie   FAIR      20  12  71 N5        30.18S WCI  13
Albany         FAIR       9   3  77 CALM      30.19F
$$

NJZ001-105-106-008-010-013-015-019>022-104-180400-
New Jersey

CITY           SKY/WX    TMP DP  RH WIND       PRES   REMARKS
Newark/Liberty MOCLDY    23   9  55 N16G24    30.20S WCI  10
Teterboro      CLOUDY    22  10  60 NW10      30.19R WCI  11
Caldwell       FAIR      20   8  60 NW6       30.20S WCI  12
Somerville     FAIR      20  10  65 NW7       30.20S WCI  11
Linden         FAIR      23   9  56 N9        30.21R WCI  13
Perth Amboy      N/A    N/A N/A N/A N10         N/A
Sussex         FAIR      16   6  65 N3        30.18S
Andover        NOT AVBL
Trenton        FAIR      21   9  59 NW7       30.21R WCI  12
Millville      FAIR      24  12  60 NW10      30.24R WCI  14
Atlantic City  FAIR      25  14  63 NW15      30.21S WCI  13
Wrightstown    MOCLDY    22  12  65 N9        30.17F WCI  11
Toms River     FAIR      23  14  68 NW12      30.20F WCI  12
Belmar         FAIR      22  12  65 NW13G23   30.19S WCI  10
$$

PAZ047>061-062-071-180400-
Eastern Pennsylvania

CITY           SKY/WX    TMP DP  RH WIND       PRES   REMARKS
Philadelphia   CLOUDY    23   9  55 NW8       30.26S WCI  14
Allentown      FAIR      16   6  65 W5        30.21F WCI   9
Scranton       FAIR       8   4  83 SW5       30.18S WCI   0
$$

CTZ002-004>006-009-010-012-RIZ004-006-007-MAZ004-011-015-180400-
Southern New England

 In CT

CITY           SKY/WX    TMP DP  RH WIND       PRES   REMARKS
Bradley Intl   FAIR      21  13  71 N5        30.13S WCI  15
Hartford       FAIR      24  14  65 NW12      30.15S WCI  13
Danbury        FAIR      22  13  68 NW5       30.15S WCI  16
Wtrbury/Oxford FAIR      19  14  81 NW9       30.11F WCI   8
Norwalk Harbor   N/A    N/A N/A N/A NW13        N/A
Bridgeport     FAIR      26  17  68 NW9       30.15S WCI  17
Meriden        FAIR      22  15  75 NW6       30.15S WCI  14
New Haven      CLOUDY    26  16  65 N9G16     30.14S WCI  17
Chester        FAIR      25  19  80 CALM      30.11R
Groton         CLOUDY    32  28  85 N9        30.09S WCI  24
Willimantic    CLOUDY    28  23  81 W8        30.11F WCI  20

 In RI

CITY           SKY/WX    TMP DP  RH WIND       PRES   REMARKS
Providence     CLOUDY    34  32  92 NW6       30.07F WCI  29
Block Island   CLOUDY    34  33  96 NW8       30.08S WCI  27
Westerly       CLOUDY    34  32  92 NW6       30.09F WCI  29

In MA

CITY           SKY/WX    TMP DP  RH WIND       PRES   REMARKS
Boston         FLURRIES  32  29  88 NW9       30.08S WCI  24
Worcester      CLOUDY    27  24  89 W9        30.04R WCI  18
Westfield      FAIR      19  12  74 N9        30.12S WCI   8
Provincetown   CLOUDY    34  33  96 MISG      30.04F
Nantucket      CLOUDY    34  34 100 N9        30.03F FOG     WCI  27
$$

ANZ330-335-338-340-345-350-353-355-180400-
Coastal Marine Observations


STATION/POSITION TIME  SKY/WX   TEMP    WIND        PRES    VSBY  WAVE
                                AIR SEA DIR/SP/G                  HT/PER
                 (UTC)          (F)     (DEG/KT/KT) (MB)    (MI)  (FT/S)
NY Harb Entrance 0150            29 41  320/ 17/ 21 1020.9          4/11
20 S Fire Island 0150            31 42  330/ 16/ 19 1020.7          5/10
15 E Barnegat Li 0230               42                N/A           5/11
Hudson Canyon    0150            38 50  320/ 16/ 19 1019.3          6/11
Kings Point      0230            24 32  360/ 11/ 13 1022.8
Execution Rocks  NOT AVBL
Western LI Sound NOT AVBL
Central LI Sound NOT AVBL
Robbins Reef     0236            23     320/ 13/ 18 1023.0
$$


>>>>>>>>>>>>>>>>>>>>>>>>>>>> KEY <<<<<<<<<<<<<<<<<<<<<<<<<<<
>                                                          <
>     SKY/WX - Sky Condition/Present Weather               <
>     TMP    - Temperature in Fahrenheit                   <
>     DP     - Dew Point in Fahrenheit                     <
>     RH     - Relative Humidity in Percent                <
>     WIND   - Direction (from) and Speed in MPH           <
>     PRES   - Mean Sea Level Pressure (inches of Hg)      <
>     WCI    - Wind Chill Index                            <
>     VSB    - Visibility in Miles                         <
>     HX     - Heat Index                                  <
>     TC     - Temperature in Celsius                      <
>     VRB    - Varibale Wind Direction                     <
>                                                          <
>>>>>>>>>>>>>>>>>>>>>>>>>>>> KEY <<<<<<<<<<<<<<<<<<<<<<<<<<<




USA.gov is the U.S. government's official web portal to all federal, state and local government web resources and services.